Flag for U.S.A. Weather past 2 weeks in Tulsa, Oklahoma, U.S.A.

Now
46 °F

Drizzle. Fog.


Feels Like: 41 °F
Forecast: 42 / 57 °F
Wind: 12 mph from South

Location: Tulsa International Airport

Current Time: Dec 21, 2014 at 11:49:44 PM

Latest Report: Dec 21, 2014 at 10:53 PM


Visibility: 5 mi

Pressure: 29.75 "Hg

Humidity: 96%

Dew point: 45 °F

Location of TulsaLocation

Historic Weather in Tulsa — Graph

°F

Tulsa temperature yesterday

Maximum temperature yesterday: 45 °F (at 12:53 PM)
Minimum temperature yesterday: 38 °F (at 1:53 AM)
Average temperature yesterday: 42 °F

Past Weeks' High & Low Weather Summary

 TemperatureHumidityPressure
High64 °F (Dec 8, 3:53 PM)100% (Dec 13, 5:53 AM)30.50 "Hg (Dec 13, 5:53 AM)
Low28 °F (Dec 10, 4:53 AM)45% (Dec 8, 3:53 PM)29.63 "Hg (Dec 15, 1:53 AM)
Average45 °F82%30.18 "Hg
* Reported Dec 6 9:53 PM — Dec 21 9:53 PM, Tulsa, Weather by CustomWeather, © 2014

Note: Actual official high and low records may vary slightly from our data, if they occured in-between our weather recording intervals... More about our weather records

Advertising

Tulsa weather history for previous 24 hours

 ConditionsComfort  
Time TempWeatherWind HumidityBarometerVisibility
9:53 PM
Dec 21
46 °FLow clouds.13 mph93%29.76 "Hg9 mi
8:53 PM46 °FFog.14 mph93%29.78 "Hg4 mi
8:00 PM47 °FFog.15 mph86%29.80 "Hg6 mi
6:53 PM48 °FOvercast.12 mph77%29.82 "Hg10 mi
5:53 PM48 °FOvercast.15 mph77%29.83 "Hg10 mi
4:53 PM49 °FOvercast.13 mph74%29.84 "Hg10 mi
3:53 PM49 °FOvercast.15 mph77%29.85 "Hg10 mi
2:53 PM49 °FOvercast.16 mph77%29.87 "Hg10 mi
1:53 PM49 °FOvercast.14 mph77%29.89 "Hg10 mi
1:00 PM47 °FOvercast.17 mph83%29.92 "Hg9 mi
11:53 AM48 °FOvercast.17 mph83%29.98 "Hg10 mi
10:53 AM47 °FOvercast.12 mph86%30.03 "Hg8 mi
9:59 AM47 °FFog.15 mph86%30.05 "Hg6 mi
8:53 AM45 °FFog.10 mph97%30.07 "Hg5 mi
7:53 AM45 °FFog.10 mph93%30.09 "Hg6 mi
6:53 AM44 °FLow clouds.10 mph96%30.09 "Hg8 mi
5:53 AM43 °FMostly cloudy.8 mph97%30.09 "Hg7 mi
4:53 AM43 °FOvercast.7 mph93%30.10 "Hg10 mi
3:53 AM43 °FOvercast.6 mph93%30.12 "Hg10 mi
2:53 AM42 °FOvercast.6 mph96%30.14 "Hg9 mi
2:04 AM43 °FDrizzle. Mostly cloudy.6 mph93%30.15 "Hg8 mi
1:53 AM43 °FDrizzle. Overcast.6 mph93%30.15 "Hg7 mi
12:53 AM43 °FDrizzle. Mostly cloudy.8 mph93%30.16 "Hg7 mi
11:53 PM
Dec 20
43 °FOvercast.7 mph89%30.18 "Hg10 mi
Weather by CustomWeather, © 2014

See weather overviewHow to use our weather pages